When you browse on this site, cookies collect data to enhance your experience and personalize the content and advertising you see.
Visit our Privacy Policy to learn more. By continuing to use the site, you agree to this use of cookies and data.
  • In Romania
  • List of Countries
  • For 7 days
  • Water Temperature
  • Satellite Maps
  • Weather Map
  • Weather Widgets
  • user-avatar
    Login

    Hourly Weather Biskira

    Today, 24 March, Sunday

    Time Temperature Precipitation Wind Pressure Humidity
    00:00 +18°C° 0 mm 1 mps 758 mmHg 49%
    01:00 +16°C° 0 mm 1 mps 757 mmHg 50%
    02:00 +15°C° 0 mm 0 mps 757 mmHg 51%
    03:00 +14°C° 0 mm 0 mps 757 mmHg 53%
    04:00 +14°C° 0 mm 0 mps 757 mmHg 54%
    05:00 +14°C° 0 mm 0 mps 757 mmHg 55%
    06:00 +13°C° 0 mm 0 mps 757 mmHg 56%
    07:00 +16°C° 0 mm 1 mps 758 mmHg 51%
    08:00 +18°C° 0 mm 1 mps 758 mmHg 46%
    09:00 +19°C° 0 mm 2 mps 758 mmHg 41%
    10:00 +20°C° 0 mm 2 mps 758 mmHg 39%
    11:00 +20°C° 0 mm 2 mps 758 mmHg 37%
    12:00 +21°C° 0 mm 2 mps 758 mmHg 35%
    13:00 +21°C° 0 mm 3 mps 757 mmHg 34%
    14:00 +22°C° 0 mm 3 mps 757 mmHg 33%
    15:00 +22°C° 0 mm 3 mps 756 mmHg 32%
    16:00 +22°C° 0 mm 3 mps 756 mmHg 33%
    17:00 +21°C° 0 mm 2 mps 756 mmHg 34%
    18:00 +21°C° 0 mm 2 mps 756 mmHg 36%
    19:00 +20°C° 0 mm 2 mps 756 mmHg 38%
    20:00 +20°C° 0 mm 2 mps 757 mmHg 40%
    21:00 +19°C° 0 mm 2 mps 757 mmHg 42%
    22:00 +20°C° 0 mm 1 mps 757 mmHg 44%
    23:00 +19°C° 0 mm 1 mps 757 mmHg 46%

    Tomorrow, 25 March, Monday

    Time Temperature Precipitation Wind Pressure Humidity
    00:00 +18°C° 0 mm 1 mps 757 mmHg 48%
    01:00 +18°C° 0 mm 1 mps 757 mmHg 50%
    02:00 +16°C° 0 mm 1 mps 756 mmHg 51%
    03:00 +15°C° 0 mm 0 mps 756 mmHg 53%
    04:00 +16°C° 0 mm 1 mps 756 mmHg 53%
    05:00 +15°C° 0 mm 1 mps 756 mmHg 53%
    06:00 +15°C° 0 mm 1 mps 756 mmHg 53%
    07:00 +18°C° 0 mm 1 mps 756 mmHg 48%
    08:00 +19°C° 0 mm 1 mps 756 mmHg 44%
    09:00 +21°C° 0 mm 1 mps 756 mmHg 39%
    10:00 +21°C° 0 mm 1 mps 756 mmHg 37%
    11:00 +21°C° 0 mm 2 mps 756 mmHg 34%
    12:00 +22°C° 0 mm 3 mps 755 mmHg 32%
    13:00 +24°C° 0 mm 2 mps 755 mmHg 31%
    14:00 +24°C° 0 mm 2 mps 754 mmHg 29%
    15:00 +24°C° 0 mm 2 mps 753 mmHg 28%
    16:00 +24°C° 0 mm 2 mps 753 mmHg 29%
    17:00 +24°C° 0 mm 1 mps 753 mmHg 30%
    18:00 +24°C° 0 mm 1 mps 753 mmHg 31%
    19:00 +23°C° 0 mm 1 mps 753 mmHg 32%
    20:00 +23°C° 0 mm 1 mps 753 mmHg 33%
    21:00 +23°C° 0 mm 1 mps 754 mmHg 33%
    22:00 +22°C° 0 mm 1 mps 753 mmHg 35%
    23:00 +21°C° 0 mm 1 mps 753 mmHg 37%

    Day after tomorrow, 26 March, Tuesday

    Time Temperature Precipitation Wind Pressure Humidity
    00:00 +21°C° 0 mm 1 mps 753 mmHg 38%
    01:00 +20°C° 0 mm 1 mps 752 mmHg 39%
    02:00 +20°C° 0 mm 1 mps 752 mmHg 39%
    03:00 +20°C° 0 mm 1 mps 752 mmHg 39%
    04:00 +20°C° 0 mm 1 mps 752 mmHg 39%
    05:00 +19°C° 0 mm 2 mps 752 mmHg 40%
    06:00 +18°C° 0 mm 2 mps 752 mmHg 40%
    07:00 +19°C° 0 mm 2 mps 752 mmHg 38%
    08:00 +20°C° 0 mm 2 mps 752 mmHg 35%
    09:00 +23°C° 0 mm 2 mps 752 mmHg 33%
    10:00 +21°C° 0.4 mm 2 mps 752 mmHg 37%
    11:00 +21°C° 0.4 mm 3 mps 752 mmHg 42%
    12:00 +20°C° 0.4 mm 3 mps 752 mmHg 47%
    13:00 +21°C° 0.1 mm 4 mps 752 mmHg 45%
    14:00 +22°C° 0.1 mm 5 mps 752 mmHg 42%
    15:00 +22°C° 0.1 mm 6 mps 751 mmHg 40%
    16:00 +21°C° 0.1 mm 6 mps 752 mmHg 44%
    17:00 +21°C° 0.1 mm 5 mps 752 mmHg 48%
    18:00 +20°C° 0.1 mm 4 mps 752 mmHg 51%
    19:00 +19°C° 0 mm 4 mps 753 mmHg 53%
    20:00 +19°C° 0 mm 4 mps 753 mmHg 55%
    21:00 +19°C° 0 mm 5 mps 754 mmHg 57%
    22:00 +19°C° 0 mm 4 mps 754 mmHg 56%
    23:00 +18°C° 0 mm 4 mps 754 mmHg 56%

    27 March, Wednesday

    Time Temperature Precipitation Wind Pressure Humidity
    00:00 +18°C° 0 mm 4 mps 753 mmHg 56%
    01:00 +18°C° 0 mm 4 mps 753 mmHg 55%
    02:00 +17°C° 0 mm 4 mps 753 mmHg 55%
    03:00 +17°C° 0 mm 3 mps 753 mmHg 54%
    04:00 +17°C° 0 mm 3 mps 753 mmHg 53%
    05:00 +17°C° 0 mm 3 mps 753 mmHg 52%
    06:00 +17°C° 0 mm 3 mps 753 mmHg 50%
    07:00 +17°C° 0.3 mm 2 mps 754 mmHg 51%
    08:00 +17°C° 0.3 mm 2 mps 754 mmHg 51%
    09:00 +17°C° 0.3 mm 2 mps 755 mmHg 52%
    10:00 +17°C° 0.7 mm 2 mps 754 mmHg 56%
    11:00 +17°C° 0.7 mm 2 mps 754 mmHg 60%
    12:00 +16°C° 0.7 mm 2 mps 753 mmHg 64%
    13:00 +17°C° 0 mm 2 mps 753 mmHg 61%
    14:00 +17°C° 0 mm 2 mps 753 mmHg 57%
    15:00 +17°C° 0 mm 2 mps 753 mmHg 54%
    16:00 +17°C° 0 mm 2 mps 753 mmHg 54%
    17:00 +18°C° 0 mm 1 mps 753 mmHg 53%
    18:00 +18°C° 0 mm 1 mps 754 mmHg 53%
    19:00 +18°C° 0 mm 1 mps 754 mmHg 53%
    20:00 +17°C° 0 mm 2 mps 754 mmHg 54%
    21:00 +17°C° 0 mm 2 mps 754 mmHg 54%
    22:00 +16°C° 0 mm 2 mps 754 mmHg 55%
    23:00 +16°C° 0 mm 2 mps 754 mmHg 56%

    28 March, Thursday

    Time Temperature Precipitation Wind Pressure Humidity
    00:00 +16°C° 0 mm 2 mps 754 mmHg 56%
    01:00 +15°C° 0.4 mm 2 mps 754 mmHg 60%
    02:00 +15°C° 0.4 mm 2 mps 754 mmHg 64%
    03:00 +13°C° 0.4 mm 3 mps 754 mmHg 68%
    04:00 +14°C° 1 mm 2 mps 754 mmHg 70%
    05:00 +14°C° 1 mm 2 mps 755 mmHg 72%
    06:00 +13°C° 1 mm 2 mps 755 mmHg 74%
    07:00 +14°C° 0.4 mm 2 mps 755 mmHg 70%
    08:00 +14°C° 0.4 mm 2 mps 756 mmHg 67%
    09:00 +15°C° 0.4 mm 2 mps 756 mmHg 63%
    10:00 +16°C° 0 mm 1 mps 756 mmHg 57%
    11:00 +18°C° 0 mm 1 mps 756 mmHg 52%
    12:00 +19°C° 0 mm 1 mps 755 mmHg 46%
    13:00 +19°C° 0 mm 1 mps 755 mmHg 43%
    14:00 +19°C° 0 mm 2 mps 755 mmHg 39%
    15:00 +20°C° 0 mm 2 mps 754 mmHg 36%
    16:00 +20°C° 0 mm 2 mps 755 mmHg 38%
    17:00 +19°C° 0 mm 2 mps 755 mmHg 40%
    18:00 +19°C° 0 mm 3 mps 755 mmHg 42%
    19:00 +18°C° 0 mm 2 mps 756 mmHg 45%
    20:00 +18°C° 0 mm 2 mps 757 mmHg 48%
    21:00 +18°C° 0 mm 1 mps 757 mmHg 52%
    22:00 +18°C° 0 mm 1 mps 757 mmHg 52%
    23:00 +16°C° 0 mm 2 mps 757 mmHg 53%

    29 March, Friday

    Time Temperature Precipitation Wind Pressure Humidity
    00:00 +16°C° 0 mm 2 mps 758 mmHg 54%
    01:00 +16°C° 0 mm 2 mps 758 mmHg 54%
    02:00 +15°C° 0 mm 2 mps 758 mmHg 55%
    03:00 +15°C° 0 mm 1 mps 758 mmHg 56%
    04:00 +15°C° 0 mm 1 mps 758 mmHg 57%
    05:00 +15°C° 0 mm 1 mps 758 mmHg 58%
    06:00 +15°C° 0 mm 1 mps 758 mmHg 59%
    07:00 +16°C° 0 mm 2 mps 759 mmHg 57%
    08:00 +16°C° 0 mm 2 mps 759 mmHg 54%
    09:00 +17°C° 0 mm 2 mps 759 mmHg 51%
    10:00 +18°C° 0 mm 2 mps 758 mmHg 48%
    11:00 +18°C° 0 mm 2 mps 758 mmHg 45%
    12:00 +19°C° 0 mm 2 mps 758 mmHg 42%
    13:00 +20°C° 0 mm 2 mps 757 mmHg 40%
    14:00 +21°C° 0 mm 1 mps 757 mmHg 38%
    15:00 +21°C° 0 mm 1 mps 756 mmHg 35%
    16:00 +21°C° 0 mm 1 mps 756 mmHg 36%
    17:00 +21°C° 0 mm 1 mps 756 mmHg 36%
    18:00 +21°C° 0 mm 1 mps 756 mmHg 36%
    19:00 +20°C° 0 mm 2 mps 757 mmHg 37%
    20:00 +20°C° 0 mm 2 mps 757 mmHg 37%
    21:00 +20°C° 0 mm 2 mps 757 mmHg 38%
    22:00 +19°C° 0 mm 2 mps 757 mmHg 41%
    23:00 +18°C° 0 mm 2 mps 757 mmHg 45%
    Show more